Weather History for Keahole Point, HI

Change the Weather History Date:

Saturday, May 4, 2013

  Actual Average Record
Temperature  
Mean Temperature 76 °F -  
Max Temperature 80 °F 80 °F 89 °F (1983)
Min Temperature 73 °F 69 °F 66 °F (1998)
Cooling Degree Days 12    
Growing Degree Days 26 (Base 50)    
Moisture  
Dew Point 67 °F    
Average Humidity 76    
Maximum Humidity 88    
Minimum Humidity 65    
Precipitation  
Precipitation 0.00 in - - ()
Sea Level Pressure  
Sea Level Pressure 29.97 in    
Wind  
Wind Speed 10 mph (South)    
Max Wind Speed 15 mph    
Max Gust Speed -    
Visibility 9 miles    
Events Rain    
Averages and records for this station are not official NWS values.
T = Trace of Precipitation, MM = Missing Value Source: NWS Daily Summary

Daily Weather History Graph

Daily Weather History Graph

Search for Another Location

Airport:

Trip Planner

Search our weather history database for the weather conditions in past years. The results will help you decide how hot, cold, wet, or windy it might be!

Date:

Astronomy

May. 04, 2013 Rise Set
Actual Time 5:53 AM HST 6:48 PM HST
Civil Twilight 5:30 AM HST 7:11 PM HST
Nautical Twilight 5:02 AM HST 7:39 PM HST
Astronomical Twilight 4:35 AM HST 8:07 PM HST
Moon 2:17 AM HST (5/4) 2:33 PM HST (5/4)
Length of Visible Light 13h 41m
Length of Day
12h 55m
Waning Crescent, 25% of the Moon is Illuminated
May 4
Waning Crescent
May 9
New
May 17
First Quarter
May 24
Full
May 31
Last Quarter

Hourly Weather History & Observations

Time (HST) Temp. Heat Index Dew Point Humidity Pressure Visibility Wind Dir Wind Speed Gust Speed Precip Events Conditions
12:08 AM 75.2 °F - 66.2 °F 73% 30.00 in 10.0 mi North - - N/A   Mostly Cloudy
12:53 AM 75.9 °F - 66.0 °F 71% 29.99 in 10.0 mi North - - N/A   Scattered Clouds
1:53 AM 75.9 °F - 66.9 °F 74% 29.97 in 10.0 mi North - - N/A   Scattered Clouds
2:53 AM 75.9 °F - 66.9 °F 74% 29.96 in 10.0 mi North - - N/A   Mostly Cloudy
3:53 AM 75.0 °F - 68.0 °F 79% 29.96 in 10.0 mi North - - N/A   Mostly Cloudy
4:53 AM 73.9 °F - 68.0 °F 82% 29.96 in 10.0 mi North - - N/A   Clear
5:53 AM 73.9 °F - 66.9 °F 79% 29.96 in 10.0 mi North - - N/A   Clear
6:53 AM 73.9 °F - 66.9 °F 79% 29.98 in 10.0 mi South 5.8 mph - N/A   Clear
7:43 AM 77.0 °F - 66.2 °F 69% 29.98 in 10.0 mi SSE 10.4 mph - N/A   Mostly Cloudy
7:53 AM 77.0 °F - 66.9 °F 71% 29.99 in 10.0 mi SSE 10.4 mph - N/A   Overcast
8:04 AM 75.2 °F - 68.0 °F 78% 29.99 in 4.0 mi South 15.0 mph - 0.00 in Rain Heavy Rain
8:08 AM 73.4 °F - 68.0 °F 83% 29.99 in 2.0 mi South 15.0 mph - N/A Rain Heavy Rain
8:15 AM 73.4 °F - 68.0 °F 83% 29.99 in 3.0 mi South 15.0 mph - N/A Rain Heavy Rain
8:31 AM 73.4 °F - 69.8 °F 88% 30.00 in 3.0 mi South 15.0 mph - N/A   Overcast
8:53 AM 73.0 °F - 69.1 °F 87% 30.01 in 3.0 mi South 15.0 mph - N/A Rain Light Rain
9:03 AM 73.4 °F - 68.0 °F 83% 30.01 in 10.0 mi SSE 6.9 mph - 0.00 in   Overcast
9:46 AM 73.4 °F - 69.8 °F 88% 30.01 in 10.0 mi SSE 6.9 mph - 0.00 in   Overcast
9:53 AM 75.0 °F - 70.0 °F 84% 30.01 in 10.0 mi SSE 6.9 mph - 0.00 in   Overcast
10:02 AM 75.2 °F - 69.8 °F 83% 30.01 in 10.0 mi North - - N/A   Overcast
10:53 AM 75.9 °F - 69.1 °F 79% 30.01 in 10.0 mi North - - N/A   Overcast
11:53 AM 79.0 °F - 68.0 °F 69% 29.99 in 10.0 mi SSE 8.1 mph - N/A   Overcast
12:53 PM 80.1 °F 82.9 °F 69.1 °F 69% 29.97 in 10.0 mi SSW 6.9 mph - N/A   Mostly Cloudy
1:53 PM 78.1 °F - 68.0 °F 71% 29.96 in 10.0 mi WSW 10.4 mph - N/A   Overcast
2:53 PM 78.1 °F - 68.0 °F 71% 29.94 in 10.0 mi WSW 9.2 mph - N/A   Overcast
3:53 PM 78.1 °F - 68.0 °F 71% 29.93 in 10.0 mi WSW 8.1 mph - N/A   Overcast
4:53 PM 78.1 °F - 66.9 °F 68% 29.92 in 10.0 mi North - - N/A   Overcast
4:55 PM 78.8 °F - 66.2 °F 65% 29.91 in 10.0 mi WSW 9.2 mph - N/A   Overcast
5:53 PM 77.0 °F - 68.0 °F 74% 29.93 in 10.0 mi WSW 9.2 mph - N/A   Overcast
6:53 PM 75.9 °F - 68.0 °F 76% 29.94 in 10.0 mi SSW 5.8 mph - N/A   Overcast
7:08 PM 75.2 °F - 66.2 °F 73% 29.94 in 10.0 mi South 11.5 mph - N/A   Mostly Cloudy
7:18 PM 75.2 °F - 66.2 °F 73% 29.94 in 10.0 mi South 11.5 mph - N/A   Scattered Clouds
7:53 PM 75.9 °F - 66.9 °F 74% 29.96 in 10.0 mi South 11.5 mph - N/A   Overcast
8:16 PM 75.2 °F - 66.2 °F 73% 29.96 in 10.0 mi SW 9.2 mph - N/A   Overcast
8:53 PM 75.9 °F - 64.9 °F 69% 29.97 in 10.0 mi SW 9.2 mph - N/A   Overcast
9:53 PM 75.9 °F - 66.0 °F 71% 29.98 in 10.0 mi SSW 9.2 mph - N/A   Overcast
10:53 PM 75.9 °F - 66.0 °F 71% 29.97 in 10.0 mi North - - N/A   Overcast
11:53 PM 75.0 °F - 66.0 °F 73% 29.96 in 10.0 mi North - - N/A   Overcast